• En España
  • Lista de países
  • Para 7 días
  • Temperatura del agua
  • Mapa Satelital
  • El tiempo en el mapa
  • Informadores
  • user-avatar
    Iniciar sesión

    Tiempo cada hora Haskovo

    Hoy, 19 Septiembre, Miércoles

    Tiempo Temperatura Precipitaciones Viento Presión Humedad
    00:00 +16°C° 0 mm 1 mps 746 mmHg 69%
    01:00 +16°C° 0 mm 1 mps 746 mmHg 71%
    02:00 +15°C° 0 mm 1 mps 746 mmHg 73%
    03:00 +15°C° 0 mm 1 mps 746 mmHg 75%
    04:00 +15°C° 0 mm 1 mps 746 mmHg 77%
    05:00 +14°C° 0 mm 1 mps 746 mmHg 79%
    06:00 +16°C° 0 mm 1 mps 746 mmHg 75%
    07:00 +18°C° 0 mm 1 mps 746 mmHg 70%
    08:00 +19°C° 0 mm 1 mps 746 mmHg 65%
    09:00 +20°C° 0 mm 2 mps 746 mmHg 59%
    10:00 +21°C° 0 mm 2 mps 746 mmHg 53%
    11:00 +24°C° 0 mm 3 mps 746 mmHg 47%
    12:00 +25°C° 0 mm 3 mps 746 mmHg 42%
    13:00 +26°C° 0 mm 3 mps 746 mmHg 38%
    14:00 +27°C° 0 mm 4 mps 746 mmHg 34%
    15:00 +27°C° 0 mm 4 mps 745 mmHg 35%
    16:00 +27°C° 0 mm 4 mps 745 mmHg 37%
    17:00 +26°C° 0 mm 4 mps 745 mmHg 38%
    18:00 +23°C° 0 mm 4 mps 745 mmHg 46%
    19:00 +21°C° 0 mm 3 mps 745 mmHg 54%
    20:00 +19°C° 0 mm 3 mps 745 mmHg 61%
    21:00 +18°C° 0 mm 2 mps 745 mmHg 67%
    22:00 +17°C° 0 mm 2 mps 745 mmHg 72%
    23:00 +18°C° 0 mm 1 mps 746 mmHg 78%

    Mañana, 20 Septiembre, Jueves

    Tiempo Temperatura Precipitaciones Viento Presión Humedad
    00:00 +16°C° 0 mm 1 mps 745 mmHg 80%
    01:00 +16°C° 0 mm 1 mps 745 mmHg 82%
    02:00 +15°C° 0 mm 1 mps 745 mmHg 84%
    03:00 +15°C° 0 mm 1 mps 745 mmHg 84%
    04:00 +15°C° 0 mm 1 mps 745 mmHg 85%
    05:00 +14°C° 0 mm 1 mps 745 mmHg 85%
    06:00 +16°C° 0 mm 2 mps 745 mmHg 79%
    07:00 +17°C° 0 mm 2 mps 745 mmHg 72%
    08:00 +18°C° 0 mm 2 mps 745 mmHg 66%
    09:00 +20°C° 0 mm 2 mps 745 mmHg 57%
    10:00 +23°C° 0 mm 2 mps 745 mmHg 49%
    11:00 +25°C° 0 mm 3 mps 745 mmHg 40%
    12:00 +26°C° 0 mm 3 mps 745 mmHg 37%
    13:00 +27°C° 0 mm 3 mps 745 mmHg 33%
    14:00 +28°C° 0 mm 3 mps 744 mmHg 30%
    15:00 +28°C° 0 mm 3 mps 744 mmHg 31%
    16:00 +28°C° 0 mm 3 mps 744 mmHg 33%
    17:00 +28°C° 0 mm 3 mps 743 mmHg 35%
    18:00 +25°C° 0 mm 3 mps 744 mmHg 42%
    19:00 +22°C° 0 mm 3 mps 744 mmHg 49%
    20:00 +20°C° 0 mm 2 mps 744 mmHg 56%
    21:00 +20°C° 0 mm 2 mps 744 mmHg 61%
    22:00 +19°C° 0 mm 2 mps 744 mmHg 67%
    23:00 +19°C° 0 mm 1 mps 744 mmHg 72%

    Pasado mañana, 21 Septiembre, Viernes

    Tiempo Temperatura Precipitaciones Viento Presión Humedad
    00:00 +18°C° 0 mm 1 mps 744 mmHg 74%
    01:00 +18°C° 0 mm 1 mps 744 mmHg 76%
    02:00 +18°C° 0 mm 1 mps 744 mmHg 78%
    03:00 +18°C° 0 mm 1 mps 744 mmHg 78%
    04:00 +16°C° 0 mm 2 mps 744 mmHg 78%
    05:00 +16°C° 0 mm 2 mps 744 mmHg 78%
    06:00 +17°C° 0 mm 2 mps 744 mmHg 72%
    07:00 +19°C° 0 mm 2 mps 744 mmHg 65%
    08:00 +21°C° 0 mm 1 mps 744 mmHg 58%
    09:00 +23°C° 0 mm 2 mps 744 mmHg 51%
    10:00 +25°C° 0 mm 2 mps 744 mmHg 43%
    11:00 +27°C° 0 mm 2 mps 744 mmHg 36%
    12:00 +28°C° 0 mm 3 mps 744 mmHg 33%
    13:00 +29°C° 0 mm 3 mps 744 mmHg 30%
    14:00 +30°C° 0 mm 3 mps 743 mmHg 28%
    15:00 +29°C° 0 mm 3 mps 743 mmHg 29%
    16:00 +29°C° 0 mm 3 mps 743 mmHg 30%
    17:00 +29°C° 0 mm 3 mps 743 mmHg 31%
    18:00 +27°C° 0 mm 3 mps 743 mmHg 37%
    19:00 +25°C° 0 mm 2 mps 743 mmHg 42%
    20:00 +23°C° 0 mm 2 mps 743 mmHg 48%
    21:00 +21°C° 0 mm 2 mps 743 mmHg 53%
    22:00 +21°C° 0 mm 1 mps 743 mmHg 57%
    23:00 +21°C° 0 mm 1 mps 744 mmHg 62%

    22 Septiembre, Sábado

    Tiempo Temperatura Precipitaciones Viento Presión Humedad
    00:00 +20°C° 0 mm 1 mps 743 mmHg 65%
    01:00 +20°C° 0 mm 1 mps 743 mmHg 67%
    02:00 +19°C° 0 mm 1 mps 743 mmHg 70%
    03:00 +19°C° 0 mm 1 mps 743 mmHg 71%
    04:00 +19°C° 0 mm 1 mps 743 mmHg 72%
    05:00 +18°C° 0 mm 1 mps 743 mmHg 74%
    06:00 +20°C° 0 mm 1 mps 743 mmHg 68%
    07:00 +21°C° 0 mm 1 mps 743 mmHg 63%
    08:00 +22°C° 0 mm 1 mps 743 mmHg 58%
    09:00 +24°C° 0 mm 1 mps 743 mmHg 50%
    10:00 +26°C° 0 mm 1 mps 743 mmHg 42%
    11:00 +28°C° 0 mm 2 mps 743 mmHg 35%
    12:00 +29°C° 0 mm 2 mps 743 mmHg 31%
    13:00 +30°C° 0 mm 2 mps 743 mmHg 28%
    14:00 +31°C° 0 mm 2 mps 742 mmHg 25%
    15:00 +31°C° 0 mm 2 mps 742 mmHg 25%
    16:00 +30°C° 0 mm 2 mps 742 mmHg 25%
    17:00 +30°C° 0 mm 2 mps 741 mmHg 26%
    18:00 +28°C° 0 mm 1 mps 741 mmHg 30%
    19:00 +26°C° 0 mm 1 mps 742 mmHg 33%
    20:00 +24°C° 0 mm 1 mps 742 mmHg 37%
    21:00 +23°C° 0 mm 1 mps 742 mmHg 41%
    22:00 +23°C° 0 mm 1 mps 742 mmHg 44%
    23:00 +22°C° 0 mm 1 mps 742 mmHg 47%

    23 Septiembre, Domingo

    Tiempo Temperatura Precipitaciones Viento Presión Humedad
    00:00 +21°C° 0 mm 1 mps 742 mmHg 50%
    01:00 +21°C° 0 mm 1 mps 742 mmHg 52%
    02:00 +20°C° 0 mm 1 mps 742 mmHg 54%
    03:00 +20°C° 0 mm 1 mps 742 mmHg 54%
    04:00 +20°C° 0 mm 1 mps 742 mmHg 55%
    05:00 +20°C° 0 mm 1 mps 742 mmHg 55%
    06:00 +21°C° 0 mm 1 mps 742 mmHg 51%
    07:00 +23°C° 0 mm 1 mps 743 mmHg 46%
    08:00 +24°C° 0 mm 2 mps 743 mmHg 42%
    09:00 +26°C° 0 mm 2 mps 743 mmHg 38%
    10:00 +28°C° 0 mm 3 mps 744 mmHg 34%
    11:00 +30°C° 0 mm 3 mps 744 mmHg 30%
    12:00 +31°C° 0 mm 3 mps 743 mmHg 29%
    13:00 +31°C° 0 mm 3 mps 743 mmHg 28%
    14:00 +32°C° 0 mm 2 mps 743 mmHg 27%
    15:00 +32°C° 0 mm 2 mps 743 mmHg 28%
    16:00 +31°C° 0 mm 2 mps 743 mmHg 30%
    17:00 +31°C° 0 mm 2 mps 743 mmHg 31%
    18:00 +29°C° 0 mm 2 mps 743 mmHg 36%
    19:00 +27°C° 0 mm 3 mps 743 mmHg 42%
    20:00 +25°C° 0 mm 3 mps 743 mmHg 48%
    21:00 +24°C° 0 mm 3 mps 744 mmHg 54%
    22:00 +21°C° 0 mm 3 mps 744 mmHg 61%
    23:00 +20°C° 0 mm 3 mps 744 mmHg 68%

    24 Septiembre, Lunes

    Tiempo Temperatura Precipitaciones Viento Presión Humedad
    00:00 +19°C° 0 mm 2 mps 743 mmHg 72%
    01:00 +19°C° 0 mm 2 mps 743 mmHg 76%
    02:00 +19°C° 0 mm 1 mps 743 mmHg 80%
    03:00 +19°C° 0 mm 1 mps 743 mmHg 82%
    04:00 +18°C° 0 mm 1 mps 742 mmHg 84%
    05:00 +18°C° 0 mm 1 mps 742 mmHg 86%
    06:00 +19°C° 0 mm 1 mps 742 mmHg 82%
    07:00 +20°C° 0 mm 1 mps 742 mmHg 78%
    08:00 +21°C° 0 mm 1 mps 742 mmHg 74%
    09:00 +23°C° 0 mm 1 mps 742 mmHg 65%
    10:00 +25°C° 0 mm 2 mps 741 mmHg 56%
    11:00 +27°C° 0 mm 2 mps 741 mmHg 47%
    12:00 +29°C° 0 mm 3 mps 741 mmHg 42%
    13:00 +30°C° 0 mm 3 mps 740 mmHg 38%
    14:00 +33°C° 0 mm 4 mps 739 mmHg 33%
    15:00 +32°C° 0 mm 4 mps 739 mmHg 34%
    16:00 +32°C° 0 mm 4 mps 738 mmHg 34%
    17:00 +32°C° 0 mm 4 mps 738 mmHg 35%
    18:00 +29°C° 0 mm 4 mps 738 mmHg 41%
    19:00 +27°C° 0 mm 4 mps 738 mmHg 47%
    20:00 +25°C° 0 mm 3 mps 738 mmHg 53%
    21:00 +24°C° 0 mm 3 mps 738 mmHg 58%
    22:00 +22°C° 0 mm 3 mps 737 mmHg 62%
    23:00 +21°C° 0 mm 2 mps 737 mmHg 66%
    Mostrar más